Regional Weather Roundup
Issued by NWS

Home | Current Version | Previous Version | Text Only | Print | Product List | Glossary On
Versions: 1 2 3 4 5 6 7 8 9 10 11 12 13 14 15 16 17 18 19 20 21 22 23 24 25 26 27 28 29 30 31 32 33 34 35 36 37 38 39 40 41 42 43 44 45 46 47 48 49 50
000
ASUS43 KMKX 250200
RWRWI

WISCONSIN REGIONAL WEATHER ROUNDUP
NATIONAL WEATHER SERVICE MILWAUKEE/SULLIVAN WI
900 PM CDT MON JUL 24 2017

NOTE: "FAIR" INDICATES FEW OR NO CLOUDS BELOW 12,000 FEET WITH NO
SIGNIFICANT WEATHER AND/OR OBSTRUCTIONS TO VISIBILITY.

WIZ001-002-006>008-014>016-023>028-250300-
NORTHWEST WISCONSIN

CITY           SKY/WX    TMP DP  RH WIND       PRES   REMARKS
SUPERIOR ARPT  NOT AVBL
ASHLAND        CLEAR     59  58  96 CALM      30.07R
HAYWARD        CLOUDY    66  59  78 CALM      30.07S
SIREN          PTCLDY    69  59  69 SE3       30.06S
CUMBERLAND     CLEAR     64  55  72 SE3       30.08S
RICE LAKE      CLEAR     66  58  76 CALM      30.09S
CHETEK         CLEAR     67  60  77 CALM      30.08R
LADYSMITH      CLEAR     70  58  66 CALM      30.10S
EAU CLAIRE     NOT AVBL
MENOMONIE      PTCLDY    69  61  77 SE3       30.07R
NEW RICHMOND   PTCLDY    68  59  73 SE3       30.06S
OSCEOLA        PTCLDY    69  61  75 SE5       30.07S
$$

WIZ003>005-009-010-017-018-250300-
NORTH CENTRAL WISCONSIN

CITY           SKY/WX    TMP DP  RH WIND       PRES   REMARKS
MANITOWISH WTR CLEAR     62  60  91 CALM      30.08F
ARBOR VITAE    CLEAR     69  58  68 CALM      30.09F
WOODRUFF       CLEAR     69  58  68 CALM      30.09F
RHINELANDER    CLEAR     65  57  75 CALM      30.11S
EAGLE RIVER    CLEAR     67  50  54 CALM      30.10S
LAND O LAKES   CLEAR     64  55  72 CALM      30.12R
PHILLIPS       PTCLDY    67  58  72 S5        30.09S
TOMAHAWK         N/A     63  56  79 CALM      30.11S
MEDFORD        PTCLDY    65  56  72 CALM      30.10S
MERRILL        CLEAR     67  56  66 CALM      30.10F
$$

WIZ029-030-035-036-043>047-250300-
CENTRAL WISCONSIN

CITY           SKY/WX    TMP DP  RH WIND       PRES   REMARKS
WAUSAU         CLEAR     68  55  63 SE8       30.09S
MOSINEE        PTCLDY    64  57  77 SE3       30.11S
MARSHFIELD     CLEAR     66  56  70 CALM      30.09S
STEVENS POINT  CLEAR     66  54  63 E5        30.11R
WAUPACA        CLEAR     66  58  76 CALM      30.10S
WAUTOMA        CLEAR     65  60  84 E3        30.10R
WISC RAPIDS    CLEAR     66  56  70 SE3       30.11R
CAMP DOUGLAS   NOT AVBL
$$

WIZ011>013-019>022-031-037>040-048>050-250300-
NORTHEAST WISCONSIN

CITY           SKY/WX    TMP DP  RH WIND       PRES   REMARKS
ANTIGO         CLEAR     62  55  79 S6        30.13R
SHAWANO        CLEAR     66  56  72 CALM      30.10S
OCONTO         CLEAR     63  57  82 CALM      30.10R
STURGEON BAY     N/A     62  55  77 S3        30.12R
GREEN BAY      CLEAR     64  57  78 SE3       30.11R
MANITOWOC      NOT AVBL
APPLETON       PTCLDY    66  46  48 E5        30.09S
CLINTONVILLE   CLEAR    N/A N/A N/A CALM      30.10S
OSHKOSH        CLEAR     64  55  72 SE3       30.10R
$$

WIZ032>034-041-042-053>061-250300-
SOUTHWEST WISCONSIN

CITY           SKY/WX    TMP DP  RH WIND       PRES   REMARKS
LA CROSSE      PTCLDY    72  60  66 S8        30.07R
SPARTA         CLEAR     64  61  88 CALM      30.08S
VIROQUA        PTCLDY    67  61  81 CALM      30.09R
BOSCOBEL       CLEAR     65  61  87 CALM      30.08R
PRAIRIE DU CHI CLEAR     68  59  74 CALM      30.06S
PLATTEVILLE    CLEAR     68  63  84 E6        30.08S
$$

WIZ056-057-062-063-064-067-068-250300-
SOUTH CENTRAL WISCONSIN

CITY           SKY/WX    TMP DP  RH WIND       PRES   REMARKS
REEDSBURG      CLEAR     67  62  82 CALM      30.08S
BARABOO/DELLS  CLEAR     66  57  74 CALM      30.09S
LONE ROCK      NOT AVBL
MINERAL POINT  CLEAR     70  61  73 CALM      30.09R
MADISON        PTCLDY    67  57  70 E7        30.09R
MIDDLETON      CLEAR     67  59  76 E5        30.09S
WATERTOWN      CLEAR     64  57  80 CALM      30.09S
MONROE         CLEAR     68  59  73 E3        30.09R
JANESVILLE     PTCLDY    66  57  72 E6        30.08R
$$

WIZ051-052-058>065-066-070>072-250300-
SOUTHEAST WISCONSIN

CITY           SKY/WX    TMP DP  RH WIND       PRES   REMARKS
MILWAUKEE      PTCLDY    65  56  72 NE5       30.10R
WAUKESHA       CLEAR     63  48  59 NE5       30.12R
MILWAUKEE/TIMM CLEAR     64  52  63 NE5       30.11R
RACINE         CLEAR     63  58  83 N5        30.12R
KENOSHA        CLEAR     62  57  83 NE5       30.10R
FOND DU LAC    CLEAR     66  49  54 E5        30.10S
SHEBOYGAN      CLEAR     59  56  89 CALM      30.11R
WEST BEND      CLEAR     61  52  72 CALM      30.10S
JUNEAU         CLEAR     65  51  59 E3        30.11S
$$

LSZ147-162-250300-
LAKE SUPERIOR

STATION/POSITION TIME  TEMP    WIND        PRES    WAVE
                       AIR SEA DIR/SP/G            HT/PER
                 (UTC) (F)     (DEG/KT/KT) (MB)    (FT/S)
W MID LAKE BUOY  0050   56 53   20/  4/  4 1017.9R   0
DEVILS ISLAND    0100   64     100/  7/  8 1017.4F
SAXON HARBOR     0140   62     180/  3/  4 1017.3F
$$

LMZ867-665-643>646-250300-
LAKE MICHIGAN

STATION/POSITION TIME  TEMP    WIND        PRES    WAVE
                       AIR SEA DIR/SP/G            HT/PER
                 (UTC) (F)     (DEG/KT/KT) (MB)    (FT/S)
CHAMBERS ISLAND  0140   63     150/  2/  3 1018.6R
S GREEN BAY BUOY 0130   70 73  150/  8/ 10 1019.0R
N MID LAKE BUOY  0050   67 67  240/  6/  8 1019.5R   1
NORTHPORT PIER   0140   65     190/  2/  5 1019.0R
KEWAUNEE LAKESHO 0130   65     300/  3/  4 1018.7R
SHEBOYGAN LAKESH 0100   67      30/ 11/ 12 1018.7R
PORT WASHINGTON  0140   66      10/  3/  5 1020.0S
ATWATER BUOY     0009   68 69   30/ 12/ 16 1019.0F
MILWAUKEE LAKESH 0130   67      10/  9/ 11   N/A
S MID LAKE BUOY  0050   67 70   10/ 14/ 16 1018.5R   4/ 6
KENOSHA   LAKESH 0100   67      20/ 13/ 15 1018.3
$$

TC  - TEMPERATURE IN CELSIUS
VSB - VISIBILITY IN STATUTE MILES
WCI - WIND CHILL INDEX
HX  - HEAT INDEX





USA.gov is the U.S. government's official web portal to all federal, state and local government web resources and services.